Weather Roundup
Issued by NWS

Home | Current Version | Previous Version | Text Only | Print | Product List | Glossary On
Versions: 1 2 3 4 5 6 7 8 9 10 11 12 13 14 15 16 17 18 19 20 21 22 23 24 25 26 27 28 29 30 31 32 33 34 35 36 37 38 39 40 41 42 43 44 45 46 47 48 49 50
000
NZUS93 KARX 031159
HRRWXR

CURRENT HOURLY OBSERVATIONS ACROSS
MUCH OF THE UPPER MISSISSIPPI VALLEY
NATIONAL WEATHER SERVICE LA CROSSE WI
700 AM CDT TUE MAY 03 2016


...SOUTHEAST MINNESOTA...


CITY           SKY/WX    TMP DP  RH WIND       PRES   REMARKS
ROCHESTER      CLEAR     46  41  82 SW10      29.98S
ROCHESTER/MAYO FAIR      48  38  68 SW8       29.97S
WINONA         SUNNY     41  39  93 CALM      29.97S
AUSTIN         CLEAR     39  37  93 SW5       29.98F
ALBERT LEA     CLEAR     45  39  81 CALM      29.99S
DODGE CENTER   CLEAR     45  39  81 W7        29.97S
PRESTON        CLEAR     47  38  71 W12       29.98F
OWATONNA       CLEAR     46  37  71 SW6       29.97F
FARIBAULT      NOT AVBL
$$

...ELSEWHERE IN MINNESOTA...


CITY           SKY/WX    TMP DP  RH WIND       PRES   REMARKS
MINNEAPOLIS    CLOUDY    49  38  65 SW5       29.94S
INTNL FALLS    CLOUDY    51  35  54 W10G21    29.73F
DULUTH         CLOUDY    50  35  56 W14       29.81F
RED WING       CLEAR     41  39  93 CALM      29.94S
REDWOOD FALLS  CLEAR     48  38  68 W9        29.97S
MANKATO        CLEAR     46  37  71 W8        29.97S
WORTHINGTON    CLEAR     43  37  79 W6        30.02S
FAIRMONT       CLEAR     45  36  70 W6        30.00S
$$

...SOUTHWEST WISCONSIN...


CITY           SKY/WX    TMP DP  RH WIND       PRES   REMARKS
LA CROSSE      SUNNY     48  42  80 S7        29.96S
PRAIRIE DU CHI SUNNY     42  37  80 CALM      29.99S
BOSCOBEL       SUNNY     42  40  92 SW5       29.99S
LONE ROCK      NOT AVBL
PLATTEVILLE    SUNNY     41  39  92 W5        29.99R
FORT MC COY    SUNNY     32  31  96 CALM      29.96S
MAUSTON-NEW LI SUNNY     50  38  64 W8        29.93F
VIROQUA        FAIR      43  38  82 W7        29.97S
WIS DELLS      SUNNY     42  36  76 SW3       29.95S
$$

...ELSEWHERE IN WISCONSIN...


CITY           SKY/WX    TMP DP  RH WIND       PRES   REMARKS
MILWAUKEE      MOSUNNY   49  33  54 W8        29.95S
MADISON        SUNNY     41  37  86 CALM      29.95S
GREEN BAY      SUNNY     46  38  73 SW7       29.89F
EAU CLAIRE     NOT AVBL
BLACK RVR FLS  FAIR      41  40  97 CALM      29.94S
MEDFORD        SUNNY     44  35  70 W5        29.90S
WAUSAU         SUNNY     49  36  61 NW6       29.88F
WIS RAPIDS     SUNNY     39  36  89 SW3       29.94R
MARSHFIELD     SUNNY     46  36  68 W7        29.91S
RICE LAKE      CLOUDY    41  37  87 NW5       29.93R
$$

...NORTHEAST IOWA...


CITY           SKY/WX    TMP DP  RH WIND       PRES   REMARKS
WATERLOO       CLEAR     40  37  89 CALM      30.01S
DUBUQUE        SUNNY     45  40  82 VRB3      30.00R
DECORAH        SUNNY     45  39  81 VRB3      29.99R
MASON CITY     CLEAR     46  41  82 W8        30.02S
CHARLES CITY   CLEAR     45  43  93 W8        30.01S
OELWEIN        CLEAR     41  41 100 W5        30.02R
$$

...ELSEWHERE IN IOWA...


CITY           SKY/WX    TMP DP  RH WIND       PRES   REMARKS
DES MOINES     PTCLDY    45  41  86 CALM      30.04S
IOWA CITY      CLEAR     45  41  86 W7        30.04R
FORT DODGE     MOCLDY    39  36  87 CALM      30.04R
MARSHALLTOWN   CLEAR     41  40  96 W3        30.03R
CEDAR RAPIDS   CLEAR     41  40  96 NW6       30.02R
$$

...NORTHERN ILLINOIS...


CITY           SKY/WX    TMP DP  RH WIND       PRES   REMARKS
CHICAGO-OHARE  CLOUDY    47  37  68 W5        29.97R
CHICAGO-MIDWAY MOSUNNY   46  36  68 CALM      29.98R
MOLINE         SUNNY     41  38  89 CALM      30.01S
ROCKFORD       MOSUNNY   42  39  89 CALM      30.00S
PEORIA         MOSUNNY   45  42  89 NW3       30.02R
$$

NOTE: "FAIR" INDICATES FEW OR NO CLOUDS BELOW 12,000 FEET WITH NO
SIGNIFICANT WEATHER AND/OR OBSTRUCTIONS TO VISIBILITY. WIND
SPEEDS ARE IN MILES-PER-HOUR.




USA.gov is the U.S. government's official web portal to all federal, state and local government web resources and services.